www.pogodaiklimat.ru

Погода и климат >> Архив погоды >> Португалия >> Санта-Катарина


ПОГОДА в Санта-Катарине

  • Прогноз погоды в Санта-Катарине
  • Монитор погоды в Санта-Катарине

АРХИВ ПОГОДЫ в Санта-Катарине

Время (UTC), дата Ветер
(напр.,м/с)
 
Видим.   Явления Облачность Т
(С)
Тd
(С)
f
(%)
Тe
(С)
Тes
(С)
Комфортность P
(гПа)
Po
(гПа)
Тmin
(С)
Tmax
(С)
R
(мм)
R24
(мм)
S
(см)
18 9.06 С 4
{16}
20 км 4/4 480 м
[Cu Sc]
+21.8 +14.0 61 +25 +26 комфорт 1025.4 1018.6 +22.9
21 9.06 С 3-7
{7}
20 км 6/6 480 м
[Cu Sc]
+20.0 +14.6 71 +22 +22 комфорт 1026.1 1019.2
00 10.06 С 8-19
{19}
20 км 6/6 480 м
[Cu Sc]
+19.3 +13.8 70 +20 +20 1026.3 1019.4
03 10.06 С 5-9
{11}
20 км 5/5 450 м
[Cu Sc]
+19.1 +13.2 69 +20 +20 1025.1 1018.2
06 10.06 СВ 3-6
{14}
20 км 5/5 450 м
[Cu Sc]
+18.9 +13.4 70 +20 +20 1025.1 1018.2 +18.8
09 10.06 СВ 9-14
{15}
20 км 5/5 450 м
[Cu Sc]
+19.9 +12.1 61 +21 +21 комфорт 1025.5 1018.6
12 10.06 С 8-14
{16}
20 км 6/6 480 м
[Cu Sc]
+20.3 +12.3 60 +22 +23 комфорт 1025.9 1019.1
15 10.06 СВ 7-12
{13}
20 км 8/8 480 м
[Cu Sc]
+20.8 +13.5 63 +23 +24 комфорт 1025.0 1018.1
18 10.06 С 14-21
{29}
20 км 5/5 480 м
[Cu Sc]
+20.7 +13.8 65 +22 +22 комфорт 1023.7 1016.9 +21.9
21 10.06 С 7-12
{13}
н/о н/о +20.5 +14.8 70 +23 +23 комфорт 1023.7 1016.8
00 11.06 С 8-15
{15}
20 км 8/8 450 м
[Cu Sc]
+19.9 +15.1 74 +22 +22 комфорт 1023.4 1016.5
03 11.06 С 8-13
{15}
20 км 8/8 450 м
[Cu Sc]
+19.1 +15.5 80 +20 +20 1021.4 1014.5
06 11.06 С 16-23
{25}
20 км слаб. ливневой дождь {морось} 8/8 450 м
[Cu Sc]
+18.8 +16.0 84 +18 +18 1020.6 1013.8 +18.6 0.4
09 11.06 СВ 9-15
{17}
20 км 8/8 400 м
[Cu Sc]
+19.2 +15.9 81 +20 +20 1021.4 1014.5
12 11.06 СВ 9-19
{19}
8000 м слаб. морось 8/8 400 м
[Cu Sc]
+19.1 +16.1 83 +20 +20 1021.8 1014.9 0.9
15 11.06 СВ 10
{18}
10 км в посл. час дождь 6/6 360 м
[Cu Sc]
+20.7 +17.6 82 +24 +24 комфорт 1020.9 1014.0
18 11.06 С 9
{14}
9000 м {дождь} 6/6 400 м
[Cu Sc]
+20.0 +16.4 80 +22 +22 комфорт 1020.0 1013.2 +21.8 1
21 11.06 С 9-14
{15}
10 км слаб. дождь {морось} 8/8 240 м
[Cu Sc]
+19.1 +15.5 80 +20 +20 1019.9 1013.1 1
00 12.06 СВ 9-15
{15}
20 км в посл. час дождь 8/8 450 м
[Cu Sc]
+18.9 +15.2 79 +19 +19 1019.5 1012.7 0.8
03 12.06 С 8
{12}
20 км 8/8 450 м
[Cu Sc]
+18.4 +13.6 74 +18 +18 1018.5 1011.6
06 12.06 СВ 10
{17}
20 км в посл. час ливневой дождь 9/9 450 м
[Cu Sc]
+18.2 +13.6 75 +17 +17 1018.5 1011.6 +17.2 2
09 12.06 СВ 8
{17}
20 км 8/6 480 м
[Cu Sc Ci fib]
+18.7 +12.7 68 +19 +19 1019.2 1012.3
12 12.06 СВ 8-15
{16}
20 км 8/6 480 м
[Cu Sc Ci fib]
+19.4 +11.2 59 +20 +21 1019.2 1012.3
15 12.06 СВ 8
{14}
20 км 8/5 480 м
[Cu Sc Ci sp]
+19.9 +10.2 54 +21 +22 комфорт 1018.7 1011.9
18 12.06 С 7-11
{12}
20 км 9/6 480 м
[Cu Sc Ci sp]
+19.2 +12.0 63 +20 +20 1018.3 1011.4 +21.1
21 12.06 СВ 7-11
{13}
20 км 9/8 450 м
[Cu Sc Ci fib]
+18.4 +10.0 58 +18 +18 1018.8 1011.9
00 13.06 СВ 17
{29}
20 км 9/9 450 м
[Cu Sc]
+18.2 +10.2 60 +17 +17 1018.8 1011.9
03 13.06 С 6-13
{13}
20 км 8/5 480 м
[Cu Sc Ci sp]
+18.0 +10.6 62 +17 +17 1017.7 1010.8
06 13.06 СВ 6-10
{14}
20 км 5/5 480 м
[Cu Sc]
+18.1 +9.1 56 +18 +18 1017.9 1011.0 +17.6
09 13.06 С 3-7
{9}
20 км 9/9 480 м
[Cu Sc]
+19.0 +10.7 59 +20 +21 1018.9 1012.1
12 13.06 СВ 8 20 км в посл. час морось 9/9 480 м
[Cu Sc]
+18.5 +13.5 73 +18 +19 1019.6 1012.8 0.2
15 13.06 СВ 6-10
{10}
18 км 8/8 450 м
[Cu Sc]
+19.2 +11.9 63 +20 +21 1019.3 1012.5
18 13.06 С 17 20 км {дождь} 6/6 450 м
[Cu Sc]
+20.2 +10.7 54 +20 +20 1019.1 1012.2 +21.4 0.2
21 13.06 С 9 20 км 5/5 480 м
[Cu Sc]
+18.6 +10.8 60 +18 +18 1020.5 1013.6 0.2
00 14.06 С 8
{12}
20 км 1/1 480 м
[Cu Sc]
+17.5 +11.2 67 +16 +16 1020.8 1013.9
03 14.06 С 6 20 км 5/5 480 м
[Cu Sc]
+17.3 +12.5 73 +16 +16 1019.8 1012.9
06 14.06 С 5 20 км 4/3 480 м
[Cu Sc Ci fib]
+17.3 +11.5 69 +17 +17 1020.3 1013.4 +17.0
09 14.06 В 4
{7}
20 км 5/1 480 м
[Cu hum Cs]
+20.6 +11.9 57 +23 +27 комфорт 1021.6 1014.7
12 14.06 С 6 20 км 5/4 480 м
[Cu med, cong Ci fib]
+22.1 +12.4 54 +25 +29 комфорт 1022.1 1015.3
15 14.06 С 2
{5}
20 км 8/8 450 м
[Cu Sc]
+20.8 +12.8 60 +24 +27 комфорт 1021.7 1014.8
18 14.06 С 1 20 км 9/9 480 м
[Cu Sc]
+20.5 +12.9 62 +24 +24 комфорт 1021.6 1014.7 +22.8
21 14.06 С 4
{6}
20 км 8/8 480 м
[Cu Sc]
+19.0 +12.7 67 +20 +20 1022.2 1015.3
00 15.06 СВ 6
{12}
20 км 9/9 450 м
[Cu Sc]
+19.0 +13.1 69 +20 +20 1023.0 1016.1
03 15.06 СВ 3 н/о н/о +17.4 +12.5 73 +17 +17 1021.6 1014.7
06 15.06 С 4 20 км 3/1 480 м
[Cu hum Ci fib]
+17.3 +12.0 71 +17 +17 1021.8 1014.9 +17.1
09 15.06 В 5 20 км 6/3 450 м
[Cu Sc Ci fib]
+20.0 +12.8 63 +22 +24 комфорт 1022.3 1015.4
12 15.06 В 7 20 км 8/8 450 м
[Cu Sc]
+20.7 +12.8 61 +23 +24 комфорт 1022.4 1015.6
15 15.06 В 6
{9}
20 км 5/5 480 м
[Cu Sc Ci fib]
+20.9 +13.3 62 +23 +27 комфорт 1021.7 1014.9
18 15.06 В 8
{16}
20 км 8/4 1500 м
[Cu Sc Ac trans Ci fib]
+20.1 +12.7 62 +21 +22 комфорт 1021.1 1014.2 +21.5
21 15.06 В 2 20 км 5/4 480 м
[Cu Sc Ac trans Ci fib]
+19.4 +12.6 65 +21 +21 комфорт 1021.8 1014.9
00 16.06 С 2 20 км 1/1 480 м
[Cu hum]
+17.7 +12.1 70 +18 +18 1021.7 1014.8
03 16.06 СЗ 2 20 км 5/5 450 м
[Cu Sc]
+17.6 +11.8 69 +18 +18 1020.3 1013.4
06 16.06 СЗ 2 н/о н/о +17.2 +10.2 63 +18 +18 1020.4 1013.5 +16.9
09 16.06 ЮЗ 5 20 км 4/1 480 м
[Cu Sc Ac trans Ci fib]
+20.2 +14.5 70 +22 +25 комфорт 1021.0 1014.1
12 16.06 ЮЗ 9 20 км 5/4 480 м
[Cu Sc Ac trans Ci fib]
+20.6 +14.4 68 +23 +24 комфорт 1021.3 1014.4

 

Местоположение метеостанции Санта-Катарина (Португалия): широта 32.68 долгота -16.76 высота над уровнем моря 49 м.

В архиве по умолчанию представлена погода в Санта-Катарине за последнюю неделю. Архивные данные за месяц целиком и за предыдущие месяцы, начиная с января 2011 года, Вы можете получить, выбрав интересующий диапазон дат из раскрывающегося списка и нажав кнопку "Ввод!".


*Определитесь, кто Вы:
робот инопланетянин человек

Внимание! Время в таблицах - всемирное. Для получения местного времени необходимо прибавить поправку, которая равна 0 ч.

Смотрите также архив погоды в соседних городах и на ближайших метеорологических станциях:

Погода в Фуншале (Португалия) (14 км)
Погода на Порту-Санту (Португалия) (58 км)
Погода на Пальме (Канарские Острова) (461 км)
Погода в Тасакорте (Канарские Острова) (467 км)
Погода на Тенерифе (Канарские Острова) (470 км)
Погода в Санта-Круз-де-Тенерифе (Канарские Острова) (473 км)
Погода в Пуэрто-де-ла-Крус (Канарские Острова) (474 км)
Погода в Тенерифе-Гуимаре (Канарские Острова) (486 км)
Погода в Обсерватории Izana (Канарские Острова) (488 км)
Погода в Сан-Себастьян-де-ла-Гомера (Канарские Острова) (512 км)

Пояснения к столбцам:

Ветер - указаны скорость ветра в м/с - средняя за 10 мин, порывы в срок и между сроками (в фигурных скобках) и направление, откуда дует ветер: С - северный, СВ - северо-восточный, В - восточный, ЮВ - юго-восточный, Ю - южный, ЮЗ - юго-западный, З - западный, СЗ - северо-западный.
Видимость - горизонтальная дальность видимости в метрах или километрах. При видимости от 1 до 10 км при отсутствии осадков обычно наблюдается дымка, при ухудшении видимости до 1 км и менее - туман. В сухую погоду видимость может ухудшаться дымом, пылью или мглою.
Явления - указаны атмосферные явления, наблюдавшиеся в срок или в последний час перед сроком; фигурными скобками обозначены явления, наблюдавшиеся между сроками (за 1-3 часа до срока); квадратными скобками обозначены град или гололедные отложения с указанием их диаметра в мм.
Облачность - указаны через наклонную черту общая и нижняя облачность в баллах и высота нижней границы облаков в метрах; квадратными скобками обозначены формы облаков: Ci - перистые, Cs - перисто-слоистые, Cc - перисто-кучевые, Ac - высококучевые, As - высокослоистые, Sc - слоисто-кучевые, Ns - слоисто-дождевые, Cu - кучевые, Cb - кучево-дождевые. Подробнее классификацию облаков см. в Атласе облаков (PDF).
T - Температура воздуха - температура, измеренная на высоте 2 м над землей.
Td - Температура точки росы - температура, при понижении до которой содержащийся в воздухе водяной пар достигнет насыщения.
f - Относительная влажность воздуха - влажноcть воздуха, измеренная на высоте 2 м над землей.
Te - Эффективная температура - температура, которую ощущает одетый по сезону человек в тени. Характеристика душности погоды. При расчете учитывается влияние влажности воздуха и скорости ветра на теплоощущения человека.
Tes - Эффективная температура на солнце - температура, которую ощущает человек, с поправкой на солнечный нагрев. Характеристика знойности погоды. Зависит от высоты солнца над горизонтом, облачности и скорости ветра. Ночью, в пасмурную погоду, а также при ветре 12 м/с и более поправка равна нулю.
P - Атмосферное давление - приведенное к уровню моря атмосферное давление.
Po - Атмосферное давление - измеренное на уровне метеостанции атмосферное давление.
Tmin - Минимальная температура - минимум температуры воздуха на высоте 2 м над землей.
Tmax - Максимальная температура - максимум температуры воздуха на высоте 2 м над землей.
R - Количество осадков - Количество выпавших осадков за период времени, мм. При наведении курсора мыши на число - период времени, за который выпало указанное количество осадков.
R24 - Количество осадков - Количество выпавших осадков за 24 часа, мм.
S - Снежный покров - Высота снежного покрова, см. При наведении курсора мыши на число - состояние снежного покрова и степень покрытия местности в баллах.